Brookings, OR

5:30 PM PST on February 09, 2016 (GMT -0800)
Brookings State

Weather History for KBOK - March, 2014

Change the Weather History Date:

Tuesday, March 25, 2014

  Actual Average Record
Temperature  
Mean Temperature 48 °F -  
Max Temperature 54 °F 58 °F 74 °F (1969)
Min Temperature 43 °F 41 °F 30 °F (1936)
Degree Days  
Heating Degree Days 16    
Moisture  
Dew Point 47 °F    
Average Humidity 92    
Maximum Humidity 100    
Minimum Humidity 61    
Precipitation  
Precipitation 0.56 in - - ()
Sea Level Pressure  
Sea Level Pressure 29.85 in    
Wind  
Wind Speed 7 mph (SSE)    
Max Wind Speed 18 mph    
Max Gust Speed 26 mph    
Visibility 3 miles    
Events Fog , Rain    
Averages and records for this station are not official NWS values.
T = Trace of Precipitation, MM = Missing Value Source: NWS Daily Summary

Daily Weather History Graph

Daily Weather History Graph

Search for Another Location

Airport or City:

Trip Planner

Search our weather history database for the weather conditions in past years. The results will help you decide how hot, cold, wet, or windy it might be!

Date:

Astronomy

Mar. 25, 2014 Rise Set
Actual Time 7:11 AM PDT 7:35 PM PDT
Civil Twilight 6:43 AM PDT 8:03 PM PDT
Nautical Twilight 6:10 AM PDT 8:36 PM PDT
Astronomical Twilight 5:37 AM PDT 9:09 PM PDT
Moon 3:43 AM PDT (3/25) 2:07 PM PDT (3/25)
Length of Visible Light 13h 19m
Length of Day
12h 23m
Waning Crescent, 31% of the Moon is Illuminated
Mar 25
Waning Crescent
Mar 30
New
Apr 7
First Quarter
Apr 15
Full
Apr 22
Last Quarter

Hourly Weather History & Observations

Time (PDT) Temp. Windchill Dew Point Humidity Pressure Visibility Wind Dir Wind Speed Gust Speed Precip Events Conditions
12:56 AM 50.0 °F - 37.9 °F 63% 29.94 in 8.0 mi Variable 4.6 mph - 0.00 in Rain Light Rain
1:56 AM 48.9 °F - 37.9 °F 66% 29.90 in 10.0 mi Calm Calm - 0.00 in   Partly Cloudy
2:56 AM 50.0 °F - 36.9 °F 61% 29.89 in 6.0 mi Calm Calm - 0.00 in Rain Light Rain
3:06 AM 46.4 °F - 39.2 °F 76% 29.90 in 4.0 mi Calm Calm - 0.02 in Rain Rain
3:28 AM 44.6 °F - 42.8 °F 93% 29.89 in 3.0 mi Calm Calm - 0.05 in Rain Rain
3:41 AM 44.6 °F 40.7 °F 42.8 °F 93% 29.90 in 2.5 mi Variable 6.9 mph - 0.09 in Rain Rain
3:56 AM 45.0 °F 41.2 °F 41.9 °F 89% 29.90 in 2.5 mi ESE 6.9 mph - 0.13 in Rain Rain
4:12 AM 44.6 °F 40.7 °F 41.0 °F 87% 29.91 in 2.0 mi Variable 6.9 mph - 0.06 in Rain Heavy Rain
4:18 AM 44.6 °F 40.7 °F 42.8 °F 93% 29.90 in 1.8 mi ESE 6.9 mph - 0.09 in Rain Heavy Rain
4:30 AM 44.6 °F 38.8 °F 42.8 °F 93% 29.89 in 2.0 mi ESE 11.5 mph 18.4 mph 0.14 in Rain Heavy Rain
4:56 AM 43.9 °F 37.5 °F 41.9 °F 93% 29.89 in 1.8 mi ESE 12.7 mph 21.9 mph 0.21 in Rain Rain
5:33 AM 44.6 °F 41.4 °F 42.8 °F 93% 29.89 in 2.0 mi ESE 5.8 mph - 0.05 in Rain Light Rain
5:41 AM 44.6 °F 40.7 °F 42.8 °F 93% 29.89 in 1.8 mi Variable 6.9 mph - 0.06 in Rain Light Rain
5:56 AM 43.9 °F 39.3 °F 43.0 °F 97% 29.89 in 3.0 mi SE 8.1 mph - 0.06 in Rain Light Rain
6:35 AM 44.6 °F 40.2 °F 44.6 °F 100% 29.87 in 3.0 mi ESE 8.1 mph 18.4 mph 0.03 in Rain Light Rain
6:56 AM 45.9 °F 42.3 °F 45.0 °F 97% 29.87 in 3.0 mi Variable 6.9 mph - 0.05 in Rain Light Rain
7:06 AM 46.4 °F 42.4 °F 46.4 °F 100% 29.86 in 2.0 mi SE 8.1 mph - 0.01 in Rain Rain
7:15 AM 46.4 °F 41.5 °F 46.4 °F 100% 29.86 in 2.5 mi SSE 10.4 mph - 0.01 in Rain Light Rain
7:23 AM 46.4 °F 41.9 °F 46.4 °F 100% 29.86 in 2.5 mi SSE 9.2 mph - 0.02 in Rain Light Rain
7:32 AM 48.2 °F - 46.4 °F 93% 29.86 in 1.8 mi SSE 10.4 mph - 0.02 in Rain Light Rain
7:40 AM 48.2 °F - 46.4 °F 93% 29.85 in 2.5 mi SSE 9.2 mph - 0.02 in Rain Light Rain
7:47 AM 48.2 °F - 46.4 °F 93% 29.85 in 3.0 mi SSE 11.5 mph 19.6 mph 0.02 in Rain Light Rain
7:56 AM 48.9 °F - 47.8 °F 96% 29.86 in 1.2 mi SSE 8.1 mph 19.6 mph 0.04 in Rain Rain
8:03 AM 48.2 °F - 48.2 °F 100% 29.85 in 1.0 mi South 10.4 mph - 0.01 in Rain Light Rain
8:06 AM 48.2 °F - 48.2 °F 100% 29.85 in 1.5 mi SSE 10.4 mph - 0.01 in Rain Light Rain
8:17 AM 48.2 °F - 48.2 °F 100% 29.86 in 2.0 mi SSE 9.2 mph - 0.02 in Rain Light Rain
8:24 AM 48.2 °F - 48.2 °F 100% 29.86 in 1.8 mi South 11.5 mph 17.3 mph 0.03 in Rain Light Rain
8:31 AM 50.0 °F - 48.2 °F 94% 29.86 in 1.0 mi South 12.7 mph - 0.05 in Rain Rain
8:40 AM 50.0 °F - 48.2 °F 94% 29.86 in 1.5 mi South 8.1 mph - 0.06 in Rain Rain
8:56 AM 50.0 °F - 48.9 °F 96% 29.87 in 4.0 mi South 11.5 mph 20.7 mph 0.07 in Rain Light Rain
9:20 AM 50.0 °F - 48.2 °F 94% 29.87 in 4.0 mi South 13.8 mph 19.6 mph 0.00 in   Overcast
9:56 AM 50.0 °F - 48.9 °F 96% 29.89 in 4.0 mi South 10.4 mph 18.4 mph 0.00 in   Overcast
10:47 AM 51.8 °F - 48.2 °F 88% 29.89 in 4.0 mi South 10.4 mph 17.3 mph N/A   Overcast
10:56 AM 50.9 °F - 48.9 °F 93% 29.90 in 4.0 mi South 11.5 mph - N/A   Overcast
11:38 AM 51.8 °F - 50.0 °F 94% 29.89 in 5.0 mi SSE 12.7 mph 19.6 mph N/A   Overcast
11:56 AM 50.9 °F - 48.9 °F 93% 29.89 in 5.0 mi South 13.8 mph 23.0 mph N/A   Overcast
12:56 PM 52.0 °F - 48.9 °F 89% 29.89 in 5.0 mi South 16.1 mph 24.2 mph N/A   Overcast
1:11 PM 53.6 °F - 50.0 °F 88% 29.88 in 5.0 mi South 18.4 mph 26.5 mph N/A   Overcast
1:56 PM 52.9 °F - 48.9 °F 86% 29.88 in 5.0 mi South 17.3 mph 25.3 mph N/A   Overcast
2:30 PM 53.6 °F - 50.0 °F 88% 29.86 in 5.0 mi South 12.7 mph 21.9 mph N/A   Overcast
2:56 PM 54.0 °F - 50.0 °F 86% 29.87 in 5.0 mi South 10.4 mph 19.6 mph N/A   Overcast
3:56 PM 54.0 °F - 50.0 °F 86% 29.86 in 5.0 mi South 12.7 mph - N/A   Overcast
4:32 PM 53.6 °F - 50.0 °F 88% 29.84 in 4.0 mi South 10.4 mph - N/A   Overcast
4:56 PM 54.0 °F - 50.0 °F 86% 29.85 in 4.0 mi South 9.2 mph - N/A   Overcast
5:10 PM 53.6 °F - 50.0 °F 88% 29.83 in 3.0 mi South 9.2 mph 17.3 mph N/A   Overcast
5:56 PM 52.0 °F - 50.0 °F 93% 29.83 in 2.5 mi Variable 6.9 mph - 0.00 in Rain Light Rain
6:08 PM 51.8 °F - 50.0 °F 94% 29.82 in 2.0 mi Variable 5.8 mph - 0.00 in Rain Light Rain
6:18 PM 51.8 °F - 50.0 °F 94% 29.81 in 1.8 mi Variable 5.8 mph - 0.00 in Rain Light Rain
6:32 PM 51.8 °F - 50.0 °F 94% 29.81 in 2.0 mi South 9.2 mph - 0.00 in   Overcast
6:56 PM 50.9 °F - 50.0 °F 97% 29.82 in 1.8 mi South 8.1 mph - 0.00 in   Overcast
7:42 PM 50.0 °F - 48.2 °F 94% 29.80 in 2.5 mi South 8.1 mph - N/A   Overcast
7:56 PM 50.0 °F - 48.9 °F 96% 29.80 in 2.5 mi South 9.2 mph - N/A   Overcast
8:56 PM 50.0 °F - 48.9 °F 96% 29.79 in 3.0 mi SSE 8.1 mph - N/A   Overcast
9:18 PM 50.0 °F - 48.2 °F 94% 29.77 in 2.5 mi South 10.4 mph - N/A   Overcast
9:56 PM 50.0 °F - 48.9 °F 96% 29.77 in 2.5 mi South 10.4 mph - N/A   Overcast
10:07 PM 50.0 °F - 48.2 °F 94% 29.77 in 3.0 mi SSE 10.4 mph 18.4 mph N/A   Overcast
10:44 PM 50.0 °F - 48.2 °F 94% 29.76 in 2.0 mi South 10.4 mph - N/A   Overcast
10:56 PM 50.0 °F - 48.9 °F 96% 29.76 in 1.0 mi South 9.2 mph - N/A   Overcast
11:06 PM 50.0 °F - 48.2 °F 94% 29.75 in 0.8 mi South 9.2 mph 16.1 mph N/A   Overcast
11:25 PM 50.0 °F - 50.0 °F 100% 29.75 in 0.5 mi SSE 8.1 mph - N/A Fog Fog
11:44 PM 50.0 °F - 48.2 °F 94% 29.74 in 0.2 mi South 8.1 mph - N/A Fog Fog
11:56 PM 50.0 °F - 50.0 °F 100% 29.75 in 0.2 mi South 8.1 mph - N/A Fog Fog